| time (UTC) | temp F | wind direction | speed knots | gust knots | rain 1hr in | rain 24hr in | rain mn in | humidity % | barometer mb |
| 20260503212159 | 64 | 230 | 4.3 | 8.7 | 0.00 | 0.00 | 0.00 | 69 | 1013.1 |
| 20260503211659 | 64 | 271 | 3.5 | 8.7 | 0.00 | 0.00 | 0.00 | 69 | 1013.0 |
| 20260503211158 | 64 | 295 | 2.6 | 10.4 | 0.00 | 0.00 | 0.00 | 69 | 1013.1 |
| 20260503210658 | 64 | 214 | 3.5 | 10.4 | 0.00 | 0.00 | 0.00 | 68 | 1013.1 |
| 20260503210159 | 64 | 243 | 1.7 | 7.8 | 0.00 | 0.00 | 0.00 | 69 | 1013.1 |
| 20260503205932 | 64 | 255 | 4.3 | 11.3 | 0.00 | 0.00 | 0.00 | 69 | 1013.1 |
| 20260503205435 | 64 | 312 | 3.5 | 11.3 | 0.00 | 0.00 | 0.00 | 68 | 1013.2 |
| 20260503204658 | 64 | 224 | 1.7 | 8.7 | 0.00 | 0.00 | 0.00 | 69 | 1013.2 |
| 20260503204433 | 64 | 285 | 3.5 | 7.8 | 0.00 | 0.00 | 0.00 | 70 | 1013.3 |
| 20260503203657 | 63 | 230 | 3.5 | 7.8 | 0.00 | 0.00 | 0.00 | 71 | 1013.4 |
| 20260503203157 | 63 | 234 | 2.6 | 8.7 | 0.00 | 0.00 | 0.00 | 71 | 1013.5 |
| 20260503202933 | 63 | 307 | 3.5 | 11.3 | 0.00 | 0.00 | 0.00 | 74 | 1013.5 |
| 20260503202158 | 64 | 204 | 4.3 | 11.3 | 0.00 | 0.00 | 0.00 | 72 | 1013.3 |
| 20260503201658 | 63 | 262 | 2.6 | 7.8 | 0.00 | 0.00 | 0.00 | 73 | 1013.4 |
| 20260503201455 | 63 | 286 | 3.5 | 13.0 | 0.00 | 0.00 | 0.00 | 72 | 1013.5 |
| 20260503201451 | 63 | 245 | 1.7 | 10.4 | 0.00 | 0.00 | 0.00 | 73 | 1013.5 |
| 20260503200157 | 63 | 278 | 3.5 | 13.0 | 0.00 | 0.00 | 0.00 | 71 | 1013.5 |
| 20260503195939 | 63 | 306 | 3.5 | 10.4 | 0.00 | 0.00 | 0.00 | 70 | 1013.4 |
| 20260503195157 | 63 | 336 | 3.5 | 10.4 | 0.00 | 0.00 | 0.00 | 70 | 1013.6 |
| 20260503194940 | 64 | 298 | 3.5 | 9.6 | 0.00 | 0.00 | 0.00 | 69 | 1013.5 |
| 20260503194156 | 64 | 137 | 1.7 | 7.8 | 0.00 | 0.00 | 0.00 | 68 | 1013.6 |
| 20260503193658 | 64 | 250 | 2.6 | 9.6 | 0.00 | 0.00 | 0.00 | 67 | 1013.6 |
| 20260503193159 | 64 | 245 | 1.7 | 9.6 | 0.00 | 0.00 | 0.00 | 67 | 1013.6 |
| 20260503192657 | 64 | 259 | 3.5 | 8.7 | 0.00 | 0.00 | 0.00 | 66 | 1013.6 |
| 20260503192158 | 64 | 245 | 1.7 | 7.8 | 0.00 | 0.00 | 0.00 | 65 | 1013.6 |
| 20260503191657 | 64 | 298 | 3.5 | 7.8 | 0.00 | 0.00 | 0.00 | 64 | 1013.6 |
| 20260503191157 | 65 | 289 | 2.6 | 6.1 | 0.00 | 0.00 | 0.00 | 63 | 1013.6 |
| 20260503190711 | 65 | 278 | 2.6 | 5.2 | 0.00 | 0.00 | 0.00 | 64 | 1013.7 |
| 20260503190704 | 65 | 307 | 2.6 | 6.1 | 0.00 | 0.00 | 0.00 | 63 | 1013.6 |
| 20260503185656 | 64 | 238 | 0.9 | 5.2 | 0.00 | 0.00 | 0.00 | 65 | 1013.6 |
| 20260503185208 | 63 | 272 | 1.7 | 6.1 | 0.00 | 0.00 | 0.00 | 64 | 1013.5 |
| 20260503184714 | 63 | 266 | 0.9 | 5.2 | 0.00 | 0.00 | 0.00 | 63 | 1013.6 |
| 20260503184707 | 63 | 296 | 2.6 | 6.1 | 0.00 | 0.00 | 0.00 | 63 | 1013.7 |
| 20260503183938 | 63 | 299 | 1.7 | 5.2 | 0.00 | 0.00 | 0.00 | 65 | 1013.6 |
| 20260503183155 | 63 | 302 | 2.6 | 5.2 | 0.00 | 0.00 | 0.00 | 63 | 1013.8 |
| 20260503182656 | 62 | 275 | 2.6 | 5.2 | 0.00 | 0.00 | 0.00 | 64 | 1013.8 |
| 20260503182435 | 62 | 185 | 1.7 | 5.2 | 0.00 | 0.00 | 0.00 | 65 | 1013.7 |
| 20260503181655 | 61 | 303 | 2.6 | 6.1 | 0.00 | 0.00 | 0.00 | 65 | 1013.8 |
| 20260503181154 | 61 | 305 | 2.6 | 6.1 | 0.00 | 0.00 | 0.00 | 65 | 1013.9 |
| 20260503180656 | 61 | 279 | 1.7 | 5.2 | 0.00 | 0.00 | 0.00 | 66 | 1013.9 |
| 20260503180156 | 61 | 265 | 2.6 | 6.1 | 0.00 | 0.00 | 0.00 | 66 | 1013.9 |
| 20260503175937 | 61 | 283 | 2.6 | 6.1 | 0.00 | 0.00 | 0.00 | 67 | 1013.9 |
| 20260503175154 | 60 | 261 | 1.7 | 6.1 | 0.00 | 0.00 | 0.00 | 69 | 1013.9 |
| 20260503174934 | 60 | 299 | 1.7 | 5.2 | 0.00 | 0.00 | 0.00 | 68 | 1013.9 |
| 20260503174154 | 60 | 289 | 1.7 | 7.8 | 0.00 | 0.00 | 0.00 | 69 | 1013.8 |
| 20260503173654 | 60 | 307 | 1.7 | 7.8 | 0.00 | 0.00 | 0.00 | 70 | 1013.9 |
| 20260503173154 | 60 | 258 | 2.6 | 6.1 | 0.00 | 0.00 | 0.00 | 70 | 1013.9 |
| 20260503172935 | 59 | 261 | 1.7 | 6.1 | 0.00 | 0.00 | 0.00 | 73 | 1014.0 |
| 20260503172154 | 59 | 282 | 2.6 | 7.8 | 0.00 | 0.00 | 0.00 | 73 | 1013.9 |
| 20260503171654 | 59 | 296 | 2.6 | 7.8 | 0.00 | 0.00 | 0.00 | 74 | 1013.8 |
| 20260503171153 | 59 | 285 | 2.6 | 7.8 | 0.00 | 0.00 | 0.00 | 74 | 1013.9 |
| 20260503170653 | 59 | 244 | 2.6 | 6.1 | 0.00 | 0.00 | 0.00 | 75 | 1013.8 |
| 20260503170155 | 59 | 264 | 1.7 | 7.8 | 0.00 | 0.00 | 0.00 | 77 | 1013.7 |
| 20260503160151 | 57 | 274 | 0.9 | 5.2 | 0.00 | 0.00 | 0.00 | 83 | 1013.4 |
| 20260503150652 | 56 | 312 | 0.0 | 1.7 | 0.00 | 0.00 | 0.00 | 86 | 1013.0 |
| 20260503150150 | 56 | 281 | 0.0 | 2.6 | 0.00 | 0.00 | 0.00 | 87 | 1012.9 |
| 20260503140149 | 54 | 314 | 0.0 | 0.0 | 0.00 | 0.00 | 0.00 | 89 | 1012.5 |
| 20260503131144 | 54 | 314 | 0.0 | 0.0 | 0.00 | 0.00 | 0.00 | 89 | 1012.1 |
| 20260503130922 | 54 | 314 | 0.0 | 0.9 | 0.00 | 0.00 | 0.00 | 89 | 1011.9 |
| 20260503130200 | 54 | 314 | 0.0 | 0.0 | 0.00 | 0.00 | 0.00 | 89 | 1011.9 |
| 20260503130150 | 54 | 314 | 0.0 | 0.9 | 0.00 | 0.00 | 0.00 | 89 | 1011.9 |
| 20260503120126 | 54 | 314 | 0.0 | 0.0 | 0.00 | 0.00 | 0.00 | 88 | 1011.5 |
| 20260503110607 | 54 | 314 | 0.0 | 0.0 | 0.00 | 0.00 | 0.00 | 88 | 1011.7 |
| 20260503110105 | 54 | 314 | 0.0 | 0.0 | 0.00 | 0.00 | 0.00 | 88 | 1011.8 |
| 20260503090315 | 55 | 314 | 0.0 | 1.7 | 0.00 | 0.00 | 0.00 | 87 | 1011.9 |
| 20260503081543 | 55 | 313 | 0.0 | 1.7 | 0.00 | 0.00 | 0.00 | 87 | 1012.4 |
| 20260503081313 | 55 | 313 | 0.0 | 1.7 | 0.00 | 0.00 | 0.00 | 87 | 1012.3 |
| 20260503080546 | 55 | 310 | 0.9 | 1.7 | 0.00 | 0.00 | 0.00 | 87 | 1012.4 |
| 20260503072541 | 56 | 292 | 0.9 | 1.7 | 0.00 | 0.00 | 0.00 | 87 | 1012.4 |
| 20260503072042 | 56 | 292 | 0.0 | 2.6 | 0.00 | 0.00 | 0.00 | 87 | 1012.4 |
| 20260503071541 | 56 | 292 | 1.7 | 2.6 | 0.00 | 0.00 | 0.00 | 87 | 1012.2 |
| 20260503071040 | 56 | 292 | 0.9 | 2.6 | 0.00 | 0.00 | 0.00 | 87 | 1012.2 |
| 20260503070540 | 56 | 292 | 0.0 | 0.9 | 0.00 | 0.00 | 0.00 | 87 | 1012.1 |
| 20260503055041 | 55 | 292 | 0.0 | 2.6 | 0.00 | 0.00 | 0.00 | 88 | 1011.8 |
| 20260503054540 | 55 | 292 | 0.0 | 0.9 | 0.00 | 0.00 | 0.00 | 88 | 1011.8 |
| 20260503054311 | 55 | 292 | 0.0 | 1.7 | 0.00 | 0.00 | 0.00 | 89 | 1011.7 |
| 20260503053539 | 55 | 292 | 0.9 | 1.7 | 0.00 | 0.00 | 0.00 | 89 | 1011.7 |
| 20260503053039 | 55 | 293 | 0.0 | 2.6 | 0.00 | 0.00 | 0.00 | 89 | 1011.8 |
| 20260503052812 | 54 | 293 | 0.9 | 2.6 | 0.00 | 0.00 | 0.00 | 89 | 1011.7 |
| 20260503052308 | 54 | 293 | 0.9 | 1.7 | 0.00 | 0.00 | 0.00 | 89 | 1011.6 |
| 20260503051811 | 54 | 293 | 0.0 | 3.5 | 0.00 | 0.00 | 0.00 | 90 | 1011.7 |
| 20260503051038 | 54 | 293 | 1.7 | 3.5 | 0.00 | 0.00 | 0.00 | 90 | 1011.5 |
| 20260503050538 | 54 | 292 | 0.9 | 3.5 | 0.00 | 0.00 | 0.00 | 89 | 1011.5 |
| 20260503050038 | 54 | 293 | 0.0 | 3.5 | 0.00 | 0.00 | 0.00 | 89 | 1011.5 |
| 20260503045812 | 54 | 293 | 0.9 | 3.5 | 0.00 | 0.00 | 0.00 | 89 | 1011.4 |
| 20260503045037 | 54 | 296 | 1.7 | 3.5 | 0.00 | 0.00 | 0.00 | 89 | 1011.4 |
| 20260503044539 | 54 | 298 | 0.9 | 4.3 | 0.00 | 0.00 | 0.00 | 89 | 1011.3 |
| 20260503044039 | 54 | 299 | 1.7 | 4.3 | 0.00 | 0.00 | 0.00 | 89 | 1011.3 |
| 20260503043539 | 54 | 303 | 1.7 | 2.6 | 0.00 | 0.00 | 0.00 | 89 | 1011.3 |
| 20260503043040 | 54 | 309 | 0.9 | 3.5 | 0.00 | 0.00 | 0.00 | 89 | 1011.3 |
| 20260503042538 | 54 | 295 | 1.7 | 4.3 | 0.00 | 0.00 | 0.00 | 89 | 1011.2 |
| 20260503042054 | 55 | 309 | 0.9 | 2.6 | 0.00 | 0.00 | 0.00 | 88 | 1011.3 |
| 20260503042047 | 55 | 309 | 0.9 | 4.3 | 0.00 | 0.00 | 0.00 | 89 | 1011.3 |
| 20260503041038 | 55 | 31 | 0.9 | 2.6 | 0.00 | 0.00 | 0.00 | 88 | 1011.4 |
| 20260503040536 | 55 | 34 | 0.9 | 2.6 | 0.00 | 0.00 | 0.00 | 88 | 1011.2 |
| 20260503040038 | 55 | 330 | 0.9 | 2.6 | 0.00 | 0.00 | 0.00 | 88 | 1011.2 |
| 20260503035538 | 55 | 345 | 0.0 | 1.7 | 0.00 | 0.00 | 0.00 | 88 | 1011.3 |
| 20260503035037 | 55 | 345 | 0.0 | 2.6 | 0.00 | 0.00 | 0.00 | 87 | 1011.3 |
| 20260503034538 | 55 | 347 | 0.0 | 2.6 | 0.00 | 0.00 | 0.00 | 87 | 1011.1 |
| 20260503034311 | 55 | 0 | 0.0 | 1.7 | 0.00 | 0.00 | 0.00 | 87 | 1011.0 |
| 20260503033537 | 55 | 0 | 0.0 | 1.7 | 0.00 | 0.00 | 0.00 | 87 | 1011.0 |
| 20260503033330 | 55 | 0 | 0.0 | 1.7 | 0.00 | 0.00 | 0.00 | 86 | 1011.0 |
| 20260503032538 | 56 | 337 | 0.0 | 1.7 | 0.00 | 0.00 | 0.00 | 86 | 1011.0 |
| 20260503032037 | 56 | 316 | 0.0 | 2.6 | 0.00 | 0.00 | 0.00 | 86 | 1011.0 |
| 20260503031817 | 56 | 298 | 0.0 | 2.6 | 0.00 | 0.00 | 0.00 | 86 | 1011.2 |
| 20260503031317 | 56 | 298 | 0.0 | 1.7 | 0.00 | 0.00 | 0.00 | 87 | 1011.1 |
| 20260503030537 | 56 | 281 | 0.0 | 0.9 | 0.00 | 0.00 | 0.00 | 87 | 1011.0 |
| 20260503030036 | 56 | 281 | 0.0 | 1.7 | 0.00 | 0.00 | 0.00 | 87 | 1010.8 |
| 20260503025537 | 56 | 281 | 0.0 | 1.7 | 0.00 | 0.00 | 0.00 | 87 | 1010.7 |
| 20260503025036 | 56 | 281 | 0.0 | 3.5 | 0.00 | 0.00 | 0.00 | 86 | 1010.8 |
| 20260503024537 | 56 | 281 | 0.0 | 3.5 | 0.00 | 0.00 | 0.00 | 86 | 1010.8 |
| 20260503024315 | 57 | 265 | 0.0 | 2.6 | 0.00 | 0.00 | 0.00 | 85 | 1010.7 |
| 20260503023537 | 57 | 244 | 0.9 | 5.2 | 0.00 | 0.00 | 0.00 | 85 | 1010.5 |
| 20260503023036 | 57 | 288 | 0.9 | 5.2 | 0.00 | 0.00 | 0.00 | 84 | 1010.5 |
| 20260503022536 | 58 | 282 | 1.7 | 4.3 | 0.00 | 0.00 | 0.00 | 83 | 1010.6 |
| 20260503022035 | 58 | 292 | 1.7 | 4.3 | 0.00 | 0.00 | 0.00 | 83 | 1010.5 |
| 20260503021534 | 59 | 272 | 1.7 | 4.3 | 0.00 | 0.00 | 0.00 | 82 | 1010.5 |
| 20260503021034 | 59 | 272 | 1.7 | 6.1 | 0.00 | 0.00 | 0.00 | 81 | 1010.6 |
| 20260503020534 | 59 | 286 | 3.5 | 6.1 | 0.00 | 0.00 | 0.00 | 80 | 1010.6 |
| 20260503020034 | 59 | 274 | 0.9 | 5.2 | 0.00 | 0.00 | 0.00 | 80 | 1010.6 |
| 20260503015828 | 59 | 285 | 1.7 | 6.1 | 0.00 | 0.00 | 0.00 | 80 | 1010.6 |
| 20260503015318 | 60 | 281 | 1.7 | 6.1 | 0.00 | 0.00 | 0.00 | 79 | 1010.6 |
| 20260503014534 | 60 | 269 | 3.5 | 7.8 | 0.00 | 0.00 | 0.00 | 78 | 1010.7 |
| 20260503014034 | 60 | 224 | 1.7 | 7.8 | 0.00 | 0.00 | 0.00 | 78 | 1010.8 |
| 20260503013534 | 60 | 251 | 3.5 | 6.1 | 0.00 | 0.00 | 0.00 | 77 | 1010.7 |
| 20260503013035 | 60 | 303 | 3.5 | 7.8 | 0.00 | 0.00 | 0.00 | 77 | 1010.6 |
| 20260503012552 | 61 | 282 | 1.7 | 4.3 | 0.00 | 0.00 | 0.00 | 78 | 1010.8 |
| 20260503012545 | 61 | 286 | 0.9 | 7.8 | 0.00 | 0.00 | 0.00 | 77 | 1010.7 |
| 20260503011533 | 61 | 245 | 1.7 | 6.1 | 0.00 | 0.00 | 0.00 | 78 | 1010.8 |
| 20260503011033 | 61 | 264 | 3.5 | 7.8 | 0.00 | 0.00 | 0.00 | 77 | 1010.7 |
| 20260503010533 | 61 | 247 | 3.5 | 7.8 | 0.00 | 0.00 | 0.00 | 77 | 1010.7 |
| 20260503010033 | 61 | 285 | 3.5 | 7.8 | 0.00 | 0.00 | 0.00 | 76 | 1010.8 |
| 20260503005532 | 62 | 289 | 2.6 | 6.1 | 0.00 | 0.00 | 0.00 | 76 | 1010.9 |
| 20260503005032 | 62 | 292 | 1.7 | 7.8 | 0.00 | 0.00 | 0.00 | 75 | 1010.9 |
| 20260503004534 | 62 | 271 | 3.5 | 7.8 | 0.00 | 0.00 | 0.00 | 74 | 1010.8 |
| 20260503004313 | 62 | 219 | 2.6 | 8.7 | 0.00 | 0.00 | 0.00 | 74 | 1010.9 |
| 20260503003535 | 63 | 279 | 3.5 | 8.7 | 0.00 | 0.00 | 0.00 | 73 | 1010.9 |
| 20260503003315 | 63 | 283 | 3.5 | 8.7 | 0.00 | 0.00 | 0.00 | 73 | 1010.8 |
| 20260503002533 | 63 | 285 | 2.6 | 8.7 | 0.00 | 0.00 | 0.00 | 73 | 1010.8 |
| 20260503002034 | 64 | 271 | 0.9 | 5.2 | 0.00 | 0.00 | 0.00 | 75 | 1010.9 |
| 20260503001533 | 63 | 299 | 3.5 | 7.8 | 0.00 | 0.00 | 0.00 | 75 | 1010.8 |
| 20260503001032 | 63 | 303 | 3.5 | 8.7 | 0.00 | 0.00 | 0.00 | 74 | 1010.8 |
| 20260503000532 | 64 | 305 | 2.6 | 8.7 | 0.00 | 0.00 | 0.00 | 73 | 1010.8 |
| 20260503000031 | 65 | 251 | 2.6 | 6.1 | 0.00 | 0.00 | 0.00 | 73 | 1010.9 |
| 20260502235531 | 64 | 271 | 2.6 | 7.8 | 0.00 | 0.00 | 0.00 | 73 | 1010.9 |
| 20260502235312 | 64 | 261 | 3.5 | 7.8 | 0.00 | 0.00 | 0.00 | 73 | 1010.9 |
| 20260502234531 | 64 | 286 | 2.6 | 6.1 | 0.00 | 0.00 | 0.00 | 73 | 1010.9 |
| 20260502234032 | 64 | 254 | 1.7 | 7.8 | 0.00 | 0.00 | 0.00 | 74 | 1010.9 |
| 20260502233531 | 64 | 231 | 4.3 | 7.8 | 0.00 | 0.00 | 0.00 | 72 | 1010.9 |
| 20260502233031 | 65 | 309 | 1.7 | 6.1 | 0.00 | 0.00 | 0.00 | 72 | 1010.9 |
| 20260502232546 | 65 | 275 | 3.5 | 6.1 | 0.00 | 0.00 | 0.00 | 72 | 1011.0 |
| 20260502232032 | 65 | 269 | 1.7 | 6.1 | 0.00 | 0.00 | 0.00 | 73 | 1011.1 |
| 20260502231530 | 65 | 290 | 2.6 | 6.1 | 0.00 | 0.00 | 0.00 | 72 | 1011.2 |
| 20260502231312 | 64 | 265 | 0.9 | 6.1 | 0.00 | 0.00 | 0.00 | 74 | 1011.2 |
| 20260502230530 | 64 | 288 | 3.5 | 7.8 | 0.00 | 0.00 | 0.00 | 73 | 1011.3 |
| 20260502230312 | 64 | 243 | 2.6 | 9.6 | 0.00 | 0.00 | 0.00 | 74 | 1011.3 |
| 20260502225532 | 64 | 268 | 3.5 | 9.6 | 0.00 | 0.00 | 0.00 | 73 | 1011.4 |
| 20260502225029 | 64 | 293 | 2.6 | 7.8 | 0.00 | 0.00 | 0.00 | 73 | 1011.4 |
| 20260502224530 | 65 | 314 | 3.5 | 6.1 | 0.00 | 0.00 | 0.00 | 72 | 1011.5 |
| 20260502224030 | 65 | 274 | 2.6 | 6.1 | 0.00 | 0.00 | 0.00 | 72 | 1011.7 |
| 20260502223531 | 65 | 296 | 1.7 | 5.2 | 0.00 | 0.00 | 0.00 | 73 | 1011.7 |
| 20260502223029 | 65 | 295 | 2.6 | 5.2 | 0.00 | 0.00 | 0.00 | 72 | 1011.9 |
| 20260502222529 | 64 | 252 | 1.7 | 5.2 | 0.00 | 0.00 | 0.00 | 72 | 1011.9 |
| 20260502222313 | 64 | 285 | 2.6 | 6.1 | 0.00 | 0.00 | 0.00 | 73 | 1012.1 |
| 20260502221531 | 64 | 259 | 3.5 | 7.8 | 0.00 | 0.00 | 0.00 | 73 | 1012.2 |
| 20260502221029 | 64 | 286 | 3.5 | 7.8 | 0.00 | 0.00 | 0.00 | 74 | 1012.3 |
| 20260502220529 | 64 | 210 | 2.6 | 7.8 | 0.00 | 0.00 | 0.00 | 74 | 1012.3 |
| 20260502220029 | 64 | 278 | 1.7 | 7.8 | 0.00 | 0.00 | 0.00 | 74 | 1012.4 |
| 20260502215531 | 64 | 300 | 3.5 | 6.1 | 0.00 | 0.00 | 0.00 | 73 | 1012.4 |
| 20260502215029 | 64 | 310 | 2.6 | 6.1 | 0.00 | 0.00 | 0.00 | 74 | 1012.5 |
| 20260502214857 | 64 | 292 | 3.5 | 6.1 | 0.00 | 0.00 | 0.00 | 73 | 1012.5 |
| 20260502214028 | 64 | 314 | 1.7 | 5.2 | 0.00 | 0.00 | 0.00 | 74 | 1012.6 |
| 20260502213527 | 64 | 295 | 2.6 | 4.3 | 0.00 | 0.00 | 0.00 | 73 | 1012.8 |
| 20260502213028 | 64 | 257 | 2.6 | 4.3 | 0.00 | 0.00 | 0.00 | 73 | 1012.9 |
| 20260502212528 | 64 | 302 | 2.6 | 5.2 | 0.00 | 0.00 | 0.00 | 73 | 1012.9 |